Погода в Пялице

Погода в Пялице : погода сейчас, прогноз погоды и архив. Всё, что Вы хотите узнать о погоде в Пялице!

Хотите узнать прогноз погоды в Пялице? Тогда Вам сюда: Погода в Пялице

Поиск расширенной информации на нашем сайте:

Другие новости

Новости СМИ2

Главная страница сайта

Новости сайта

03.07.2017

Напоминаем, что на нашем специализированном сайте Метеоцентр.Азия вы можете получить высокодетализированные автоматические прогнозы погоды по пунктам России, СНГ и мира в авиационном формате (включающие направление и скорость ветра, видимость, явления погоды, количество и форму облачности, нижнюю и верхнюю границу облачности).

Рекомендуем: Мастера ушу - обои спорт.

Погода в Пялице - сегодня

Время (UTC), дата Ветер
(°,м/с) 
Видим.   Явления Облачность Т
(°С)
Тd
(°С)
f(%) Тe
(°С)
Pmin
(гПа)
dP
(гПа)
Po
(мм)
O2
(г/м3)
Тmin Tmax R s Состояние
почвы
18 12.06.18 010 (С) 10-16{16}  20000 м  {ливн. осадки}  9/9 300 м кучево-дожд. 
[Cb cap]
+4.7 +2.7 87 +1  996  2.2  746  295    +7.3     
21 12.06.18 360 (С) 9-14{16}  н/о    н/о 
+3.5 +1.2 85 997  1.1  747  297           
03 13.06.18 360 (С) 8-15{17}  20000 м    8/8 300 м кучево-дожд. 
[Cb cap]
+4.8 +1 76 +2  998.8  0.7  748  296  +3.1    0.5     
21 13.06.18 340 (С) 2-3  н/о    н/о 
+1.8 -1.4 79 +1  1010  1.9  757  303           
15 14.06.18 300 (СЗ) 4-6  20000 м    9/9 600 м кучево-дожд. 
[Cb cap]
+10.2 -2.7 40 +9  1015.8  0.1  761  296           
21 14.06.18 130 (ЮВ) 1-2  н/о    н/о 
+4.4 +1.6 82 +5  1017  0.5  762  302           
09 15.06.18 210 (ЮЗ) 3-4  20000 м    8/0 верхняя 
[Cc]
+7.8 +5 82 +7  1018.2  0.1  763  298           
21 15.06.18 050 (СВ) 4-5  н/о    н/о 
+8 +0.9 61 +7  1016.3  0.2  761  298           
09 16.06.18 180 (Ю) 1-3  20000 м    4/1 600 м верхняя 
[Sc|Ci fib]
+12.4 +6.9 69 +14  1015.8  761  292           
00 17.06.18 тихо ()   20000 м    6/0 верхняя 
[Ci fib]
+7.6 +7.1 97 +8  1016.9  0.7  762  297           
09 17.06.18 220 (ЮЗ) 4-5  20000 м    9/8 600 м кучево-дожд., верхняя 
[Cb cap|Ci fib]
+11.9 +9.8 87 +12  1017.7  0.4  762  293           
00 18.06.18 тихо ()   20000 м    3/1 600 м верхняя 
[Sc|Ci fib]
+6.5 +4.8 89 +7  1018.6  0.6  763  300           
09 18.06.18 090 (В) 5-6  20000 м    4/3 600 м средняя 
[Sc|Ac trans]
+13.5 +7.5 67 +13  1016.5  -1.2  762  291           
21 18.06.18 050 (СВ) 2-2  н/о    н/о 
+14.2 +12.9 92 +20  1009.3  -0.7  756  287           
03 19.06.18 080 (В) 4-5  20000 м  в посл. час ливневой дождь  9/9 300 м кучево-дожд. 
[Cb cap]
+13.5 +12.5 94 +18  1006  -1.7  754  287  +9.7       
09 19.06.18 110 (В) 4-5  20000 м    9/8 300 м кучево-дожд., верхняя 
[Cb cap|Ci fib]
+11.7 +7.8 77 +11  1002.6  -1.6  751  289           
21 19.06.18 050 (СВ) 6-9{10}  н/о    н/о 
+12.9 +12.5 97 +17  993.9  -2.4  745  284           
03 20.06.18 080 (В) 4-6  0500 м  туман  10/10 300 м кучево-дожд. 
[Cb cap]
+11.9 +11.8 99 +15  989.4  -2  741  284  +11       
21 20.06.18 070 (В) 2-3  н/о    н/о 
+7.8 +7.8 100 +8  990.4  0.5  742  289           
03 21.06.18 110 (В) 3-3  2000 м  в посл. час туман{дождь}  10/10 600 м 
[Sc]
+6.8 +6.7 99 +6  992.4  1.6  744  291  +6.4    0.8     
09 21.06.18 120 (ЮВ) 2-3  н/о    н/о 
+5.8 +5.8 100 +6  996.8  2.5  747  294           
21 21.06.18 тихо ()   н/о    н/о 
+5.3 +5.1 99 +5  1003.6  1.4  752  296           
00 22.06.18 360 (С) 1-1  н/о    н/о 
+3.8 +3.7 99 +5  1004.3  0.7  752  298           
03 22.06.18 170 (Ю) 1-2  20000 м  в посл. час туман  3/1 600 м верхняя 
[Sc|Ci fib]
+7.3 +7.2 99 +8  1005.5  1.2  753  294  +3.8         
09 22.06.18 090 (В) 6-8  н/о    н/о 
+10.7 +8.7 87 +9  1006.7  0.6  754  291           
Время (UTC), дата Ветер
(°,м/с) 
Видим.   Явления Облачность Т
(°С)
Тd
(°С)
f(%) Тe
(°С)
Pmin
(гПа)
dP
(гПа)
Po
(мм)
O2
(г/м3)
Тmin Tmax R s Состояние
почвы

Для получения пояснительной информации подведите курсор к названию столбца.

ПОГОДА в Пялице - архив

Всё, что Вы хотите узнать о погоде в Пялице - удобно и подробно!

Выберите нужную дату (начиная с 1 января 2015* года) и нажмите кнопку "Найти".
Будут отображены архивные сводки погоды по пункту Пялица, начиная с указанной даты.


Отображать данные в формате CSV (для использования в таблицах Excel)


Внимание! Наш архив погоды предназначен исключительно для личного некоммерческого использования в познавательных целях. Если Вам необходимы официальные справки о состоянии погоды (для производственных, юридических, коммерческих и т.п. целей), обращайтесь в органы Росгидромета.

*Примечание: данная дата относится к архиву по метеостанциям СССР (Россия, СНГ, Балтия).
Архив по метеостанциям Зарубежной Европы и Азии (кроме Китая) хранится 10 дней, по другим регионам земного шара (Китай, Африка, Америка, Австралия, Океания) - 1 день.

Пялица - район местоположения метеостанции


Название, широта, долгота, высота метеостанции:
Пялица 66.2°ш. 39.5°д. 9 м над ур. моря [Российская Федерация]

Дополнительная информация

В oтличие oт бoльшинства пoгoдных сайтoв мы публикуем пoдрoбную метеoинфoрмацию в детальнoм прoфессиoнальнoм фoрмате.

Характеристики температуры и влажнoсти вoздуха измеряются на высoте 2 м в тени вдали oт зданий и деревьев.
Скoрoсть ветра измеряется на высoте 10 м (на урoвне рoста челoвека скoрoсть ветра ниже в 1.5-2 раза). Если метеoстанция нахoдится в гoрoде или в лесу, тo скoрoсть ветра занижена на 2-4 м/с пo сравнению с oткрытым местoм. Скoрoсть ветра над акватoриями крупных рек и oзёр, а также на вершинах хoлмoв на 2-5 м/с выше, чем в oбычных услoвиях.
Атмoсфернoе давление в разных тoчках местнoсти мoжет значительнo oтличаться oт давления на метеoстанции, в зависимoсти oт услoвий рельефа (при пoдъёме на 10 м давление пoнижается примернo на 1 мм рт.ст.).